Location: Laas
(43.4693°N, 0.3073°E)
Time: 15:36:31
(UTC+00:00)

FALCON 9 DEB - Pass Details

Date: 25 October 2020
Orbit: 378 x 397 km, 53.0° (Epoch: 23 November)

Event Time Altitude Azimuth Distance (km) Brightness Sun altitude
Rises 17:23:58 0° 209° (SSW) 2,294 7.5 -5.2°
Reaches altitude 10° 17:26:11 10° 198° (SSW) 1,438 6.2 -5.6°
Maximum altitude 17:29:02 29° 136° (SE) 763 4.1 -6.1°
Drops below altitude 10° 17:31:51 10° 74° (ENE) 1,434 5.1 -6.6°
Enters shadow 17:32:09 - 71° (ENE) 1,545 5.2 -6.6°
